DELTA 1 DEB, 7165

Orbit data source: Space-Track

DELTA 1 DEB, 7165 is space debris in SSO originally from a launch on Tue, 06 Nov 1973 UTC launched from the Air Force Western Test Range (AFWTR). Debris objects in space refer to the collection of defunct objects orbiting the Earth. Examples of debris include non-operational satellites, rocket bodies, and fragments generated from explosions, collisions, or faulty payload assembly.

Loading next visibility...
Identifier
7165, 1973-086ED
Orbit
SSO
Country
Flag of USUS
Related business
Manufacturer
Unknown
Mission
Spacecraft
Bus & Motor
Unknown
Mass
Unknown
Launch date (UTC)
1973-11-06 (53 years ago)
Launch vehicle
Unknown
Launch site
Air Force Western Test Range (AFWTR)
Object type
Payload
Rocket body
Debris
Shape & HBR
Unknown shape, 0.1 m
Radar Cross Section
Medium (>0.1 m² and <1 m²)

Expand to show TLE details & history
Last TLE update: 14 hours ago

TLE from 14 hours ago
0 DELTA 1 DEB
1 07165U 73086ED  26264.23604045  .00000890  00000-0  23652-2 0  9994
2 07165 101.6597  13.7319 0169051  40.3459 349.9566 13.14387839501893
Epoch: 2026-09-21T05:39Z
TLE epoch observation values (Epoch: 2026-09-21T05:39:53.894Z)
Latitude
29.32787°
Longitude
-77.98448°
Altitude
1,083.457 km
Speed
7.374 km/s
True Right ascension
00h 28m 26s
True Declination
29° 11' 16"
Sunlit
Object was in full shadow at epoch
Visualization orbit readout
Latitude
Unknown
Longitude
Unknown
Altitude
Unknown
Speed
Unknown
Apparent Right ascension
Unknown
Apparent Declination
Unknown
Sunlit
N/A
Visualization observer readout
Local Sidereal Time
12:53:04
Azimuth
Unknown
Elevation
Unknown
Doppler factor
Unknown
Orbital elements
Apogee altitude
1,331.861 km
Perigee altitude
1,075.518 km
Semi-major axis
7,581.826 km
Eccentricity
0.01691
Inclination
101.6597°
RAAN
13.7319°
Arg. of periapsis
40.3459°
True anomaly
349.6116°
Mean anomaly
349.9566°
Eccentric anomaly
349.78482°
Mean motion
3.28763 °/min
Orbital period
109.5 mins
BSTAR
0.0023652
Loading maneuver chart data...
Computing Atmospheric mass density...
Loading historical data...
Loading historical data...
Loading historical data...
Loading historical data...
Loading historical data...
Loading historical data...
Loading historical data...

Documentation

Showing up to 5 results
|